RH
91 90 92 92 91 91 92 92 90 89 88 88 87 86 90 89 87 87 89 89 89 88 88 92 92 91 89 78 71 56 41 44 42 32 24 21 19 16 14 8 5 6 8 21 27 16 18 21 18 17 14 11 9 8 8 7 8 7 10 10 9 7 5 4 3 4 6 7 7 6 8 11 13 11 14 15 15 15 13 19 21 24 31 27 28 43 56 62
91 91 92 92 92 91 93 93 91 90 88 88 87 86 89 90 89 88 87 88 89 89 88 90 91 92 88 76 63 51 49 54 43 26 18 16 15 13 10 6 6 5 8 22 22 12 14 16 14 14 11 9 7 7 8 7 8 9 8 9 8 6 4 4 5 6 6 8 7 7 7 10 14 12 11 13 15 16 16 19 20 25 32 28 32 46 54 61
90 91 91 91 92 92 93 92 91 91 89 89 86 85 88 87 90 90 88 88 89 89 88 88 91 93 86 73 55 47 58 52 29 18 18 16 13 13 11 5 6 5 8 20 17 11 13 12 12 11 9 9 7 7 9 8 8 8 8 9 7 5 5 5 7 8 8 8 7 7 6 9 18 14 11 13 15 16 16 18 18 23 31 30 36 47 51 59
90 91 90 91 92 92 92 90 88 87 87 88 83 83 87 86 89 89 89 91 91 91 89 88 92 92 84 66 45 46 57 37 15 17 19 15 10 12 11 7 6 4 9 16 14 13 12 10 11 9 9 9 6 8 8 9 9 7 8 9 6 5 6 5 7 8 8 8 7 7 6 8 14 11 10 15 16 15 14 15 16 20 29 30 33 41 50 58
90 92 92 92 92 91 91 90 87 84 84 84 82 84 86 88 90 90 89 89 92 91 88 89 92 92 82 55 38 52 50 19 13 24 17 10 8 8 9 8 6 6 12 14 11 12 11 10 10 9 9 8 6 8 7 7 8 7 8 8 6 7 6 5 6 8 8 7 7 7 6 6 8 7 10 15 15 14 13 13 13 17 26 29 30 38 50 56
89 91 92 92 91 91 90 89 87 85 85 83 83 85 86 89 91 92 88 87 92 92 89 90 92 94 74 42 39 55 40 13 16 23 16 10 10 9 8 9 9 11 13 10 9 10 10 10 10 10 9 8 7 8 7 6 7 8 9 8 7 7 6 5 7 8 8 7 7 7 6 6 6 7 9 13 13 13 14 13 15 18 25 29 32 44 52 54
89 90 92 92 90 90 89 87 87 88 89 88 84 84 89 91 88 90 88 88 92 92 91 88 93 92 65 40 43 46 31 16 14 20 20 12 11 12 10 12 13 16 15 8 8 8 9 10 10 10 8 7 7 7 7 5 7 8 8 7 7 7 6 7 8 8 8 7 7 6 6 6 6 8 11 13 11 12 13 13 17 18 21 25 31 44 52 53
91 91 91 92 91 90 88 88 89 89 89 88 86 87 94 92 87 88 88 88 89 92 90 87 94 86 65 59 47 28 21 13 10 21 23 13 18 18 13 19 21 20 16 8 8 7 7 9 9 9 8 7 6 6 7 5 8 8 6 7 7 6 6 7 8 7 7 7 7 6 6 6 5 7 11 11 8 11 13 12 17 18 22 30 34 43 52 57
92 91 91 92 91 90 89 89 90 91 88 85 86 92 94 91 90 89 89 90 90 93 89 89 92 74 64 67 44 21 15 9 9 21 23 19 31 32 21 26 25 18 14 9 7 7 7 8 8 8 7 6 5 5 6 6 8 7 6 6 6 6 6 7 7 7 8 7 6 6 6 6 5 6 8 8 8 10 12 12 15 17 22 31 38 45 52 59
93 91 91 91 91 90 89 89 90 92 92 88 87 92 92 91 91 89 90 90 89 92 89 91 90 72 63 56 34 21 12 9 15 22 24 23 32 36 28 25 22 17 13 8 7 7 7 7 7 7 6 6 5 5 6 7 8 7 6 5 6 6 5 6 7 7 7 6 6 6 6 6 5 6 5 5 8 9 10 14 14 14 21 30 38 45 51 58
92 92 91 89 90 91 89 89 89 91 92 91 89 91 92 92 90 89 91 88 89 92 90 89 84 72 65 48 31 20 9 12 19 23 28 26 27 30 26 22 18 16 11 7 7 6 6 7 6 6 6 6 6 6 6 7 7 7 7 5 5 6 6 7 7 7 7 7 6 5 6 6 5 6 6 6 8 9 10 14 14 15 26 37 43 47 51 57
92 93 90 90 90 90 89 89 90 91 91 90 89 90 92 93 91 91 90 87 88 92 90 89 83 71 61 44 30 19 13 17 19 21 25 25 26 24 23 23 18 14 10 7 6 6 7 6 6 6 6 6 6 6 6 6 6 7 8 7 6 6 7 7 7 8 7 7 6 5 6 6 5 7 10 10 9 11 12 13 13 16 27 37 42 51 54 56
94 93 90 90 89 87 88 89 90 90 90 91 90 91 94 93 92 91 89 86 87 92 91 88 82 70 58 42 27 18 16 16 14 15 17 19 23 21 22 23 19 15 10 8 7 7 7 6 7 6 6 6 6 6 6 6 6 7 8 8 7 7 7 7 7 7 7 7 5 6 8 7 6 6 10 11 10 12 12 13 13 15 25 33 41 53 59 58
94 91 89 89 87 86 87 89 92 90 91 93 91 93 94 92 92 89 86 86 87 93 91 85 78 66 57 42 24 17 15 13 11 11 11 14 16 16 18 20 19 15 11 10 8 7 6 7 8 7 6 7 6 7 7 7 7 7 8 7 7 8 7 6 7 7 7 6 4 6 8 7 6 6 8 9 12 13 11 13 13 15 26 34 40 46 52 58
91 89 89 87 86 88 88 89 92 93 94 95 93 93 91 86 85 85 85 84 87 91 85 80 76 64 53 37 22 19 17 14 13 10 8 9 10 10 12 17 19 16 15 14 9 8 9 9 9 8 7 5 8 10 9 8 7 7 8 8 7 8 7 5 6 7 7 6 5 6 7 8 8 8 8 8 12 13 12 14 13 28 46 41 36 39 45 57
91 89 88 86 88 89 87 86 90 94 93 95 95 90 83 77 77 81 83 83 86 88 77 65 62 59 46 27 18 19 17 15 12 8 7 7 7 7 9 16 18 16 17 15 12 12 11 10 8 7 7 7 11 12 9 10 9 7 8 8 7 7 6 5 6 6 6 6 5 6 7 12 14 11 9 8 12 13 14 16 14 36 57 44 36 40 42 52
93 90 88 88 89 88 86 85 89 92 92 94 91 80 74 72 75 78 80 83 80 76 67 51 45 51 43 23 16 16 13 14 10 7 7 6 7 7 10 16 16 15 15 14 14 12 10 9 8 8 8 9 11 11 10 13 12 8 7 8 7 6 6 6 7 6 5 6 6 5 8 17 19 15 13 10 11 11 11 16 16 26 39 40 47 50 43 47
93 92 90 89 90 89 88 89 89 92 94 91 78 68 68 70 75 77 78 80 70 61 58 50 45 47 37 22 17 13 9 11 10 8 7 6 7 7 13 17 14 15 14 13 14 12 10 9 7 9 10 10 11 10 11 12 11 10 8 9 7 5 6 7 7 7 6 6 6 5 8 18 20 18 19 14 12 14 14 19 20 21 25 34 48 51 48 52
91 91 89 90 91 89 90 91 90 92 94 85 68 64 68 74 78 70 64 64 57 52 46 42 45 36 21 16 13 10 9 10 11 10 8 7 6 8 14 16 14 15 15 14 14 11 10 9 9 12 11 12 12 10 10 9 8 8 8 8 8 6 6 7 7 6 6 6 6 6 8 17 21 21 23 22 20 20 22 23 22 24 25 30 44 52 56 57
91 91 89 90 92 90 91 92 91 92 90 79 65 60 59 62 63 50 46 50 44 37 26 25 33 21 10 12 11 10 12 13 12 9 9 8 6 8 14 16 15 16 15 14 13 10 10 10 12 14 11 11 12 10 8 7 7 7 7 7 7 7 5 6 6 5 6 6 7 5 7 19 26 27 27 28 29 28 29 30 29 30 29 33 47 58 63 62
91 93 91 90 91 91 91 92 94 91 85 76 63 54 44 37 41 39 41 45 36 27 20 18 24 18 11 12 12 14 13 12 12 8 9 9 6 8 14 17 19 18 15 12 11 10 11 12 12 12 10 9 10 10 9 9 8 8 7 7 7 7 5 5 6 6 6 6 7 5 9 22 28 31 33 34 38 41 40 40 39 35 36 46 54 60 67 67
94 94 92 91 91 91 91 93 96 89 82 78 62 48 40 32 36 42 43 44 35 27 22 17 17 17 14 12 13 16 14 11 10 8 9 8 6 8 13 18 20 18 14 11 12 13 15 13 10 9 8 7 9 9 10 11 10 10 8 7 8 6 5 6 6 6 5 6 8 7 14 25 27 30 37 39 44 48 46 47 49 49 56 65 69 70 72 72
96 96 93 90 89 92 92 93 93 87 80 74 59 45 40 35 37 42 42 44 35 24 22 19 15 15 14 13 12 14 14 12 10 10 10 9 6 7 13 18 18 16 14 13 14 16 17 13 8 8 7 7 9 10 11 12 12 11 9 7 7 5 5 8 8 7 6 6 10 13 21 30 29 31 39 41 44 50 52 56 61 64 70 74 74 74 73 73
95 97 93 89 91 93 93 92 88 83 76 65 53 43 39 37 39 42 41 40 32 21 20 19 14 13 14 12 11 12 14 12 10 11 11 9 7 7 12 16 16 16 14 12 13 15 15 10 7 7 6 7 11 11 10 13 14 12 8 7 6 5 5 7 8 8 7 8 12 16 24 32 31 32 41 41 43 52 59 64 67 67 69 71 72 72 72 73
95 97 92 91 91 89 90 88 75 67 60 48 43 40 38 41 43 43 43 42 36 23 16 18 16 12 11 10 10 10 11 11 9 10 11 9 7 8 11 13 15 17 15 12 13 14 13 9 6 7 7 7 10 11 10 13 14 11 9 7 5 5 5 7 8 9 9 11 13 15 23 30 27 28 38 40 43 54 62 68 70 69 66 67 70 73 72 73
94 96 92 89 87 85 85 75 59 52 44 33 33 35 37 43 45 48 49 44 36 23 16 19 18 14 11 10 10 9 11 11 7 8 11 10 7 7 11 13 14 15 14 12 13 13 12 8 7 8 7 7 9 11 11 13 13 11 8 7 5 5 5 7 8 10 13 13 13 15 19 24 25 28 34 40 46 55 64 69 70 69 67 68 71 73 71 71
94 95 91 86 84 83 76 63 56 50 39 33 33 37 42 44 46 56 61 53 35 20 17 19 15 14 12 9 10 12 13 10 7 8 11 10 7 7 11 14 14 14 12 13 16 15 11 10 8 8 7 8 12 14 12 11 11 10 8 6 6 5 6 8 10 11 12 12 14 15 13 19 32 36 32 38 48 56 64 72 71 69 69 70 72 71 70 71
94 94 89 85 84 81 72 67 62 45 37 39 37 41 47 46 49 59 67 61 36 17 17 18 13 12 11 9 11 11 10 8 7 9 9 10 8 7 11 13 13 13 10 13 19 15 11 12 10 9 11 12 13 12 9 8 9 9 7 6 7 6 6 8 10 11 10 12 16 16 12 16 31 40 37 38 49 57 65 73 73 71 70 70 70 69 67 67
93 91 87 84 82 79 77 76 63 44 41 43 43 47 46 49 59 62 64 54 28 15 18 17 15 14 11 12 13 10 8 7 8 8 9 11 9 8 12 12 11 12 10 12 16 12 10 11 10 11 13 12 9 8 7 7 8 7 6 7 7 7 7 7 10 10 10 15 18 17 16 14 22 40 45 41 48 61 70 74 74 72 70 69 68 67 65 63
93 90 85 83 82 81 80 75 62 52 48 43 47 50 46 57 65 64 67 51 22 17 19 17 17 15 13 16 16 10 8 8 6 7 10 11 10 9 11 10 10 12 11 11 12 10 9 9 10 12 11 9 7 7 7 7 7 6 7 8 8 8 8 8 9 9 11 17 16 15 17 15 23 44 49 40 44 60 73 76 74 71 70 70 69 66 63 61
90 89 87 83 83 81 72 62 55 52 49 46 50 49 53 69 69 61 59 37 18 18 19 20 18 13 14 18 16 11 9 9 7 7 11 12 11 12 13 13 14 15 14 14 14 12 10 12 14 12 9 8 7 8 8 7 7 6 8 10 11 10 10 10 11 11 14 17 12 13 16 12 22 43 52 48 44 51 67 74 74 73 71 69 67 64 61 59
86 87 87 84 86 84 67 57 56 51 49 54 58 56 64 79 77 62 42 21 25 29 19 19 18 12 16 16 13 11 9 10 8 7 11 12 12 13 15 16 15 18 21 19 18 14 12 15 13 10 10 8 9 10 9 8 7 7 9 13 14 13 15 18 16 15 17 15 10 11 11 12 29 49 57 60 55 52 62 70 70 70 69 67 64 62 60 58
85 85 84 81 84 82 68 62 64 60 60 65 63 64 75 81 70 54 32 20 35 37 18 15 15 13 16 15 12 11 9 10 8 8 11 11 13 13 14 14 11 17 22 20 19 16 14 15 11 11 11 8 10 10 10 11 9 9 11 14 15 15 21 24 19 18 18 14 11 10 9 25 57 75 69 66 64 61 64 65 65 66 66 65 61 58 59 57
85 86 87 83 81 76 67 65 67 66 67 65 62 70 86 81 53 36 29 23 32 35 21 16 15 14 15 14 12 10 8 10 8 10 12 11 14 15 14 13 10 13 18 18 18 15 16 19 16 13 11 10 11 8 9 12 9 10 10 10 12 13 19 22 19 18 16 14 14 10 14 36 68 83 74 64 61 59 61 62 63 64 62 61 59 57 59 60
83 83 88 88 81 72 68 66 68 70 65 59 65 75 79 69 40 26 28 26 32 36 25 19 18 15 16 13 11 9 8 10 10 11 13 12 14 16 13 12 12 12 16 20 20 14 15 19 15 12 11 10 11 9 8 10 10 11 8 8 12 10 13 17 18 20 18 17 16 18 40 61 72 77 65 56 58 56 58 59 60 62 60 60 62 61 62 64
84 81 83 81 70 64 66 66 67 70 64 60 72 73 58 47 34 32 38 34 35 38 32 29 23 16 18 15 10 10 7 9 12 12 13 12 12 13 12 12 11 11 13 17 18 15 16 17 12 12 12 10 12 11 9 9 11 11 8 10 10 7 10 14 19 23 20 20 17 28 69 90 84 83 68 56 62 60 57 60 59 62 62 62 66 65 65 67
83 75 70 65 59 59 60 61 64 66 58 58 74 69 46 35 31 40 53 44 36 38 38 39 29 17 20 18 12 11 7 9 14 14 14 13 12 12 11 11 10 10 11 13 15 14 16 17 11 11 14 11 10 11 9 7 9 10 10 10 8 7 10 12 17 21 19 23 19 28 75 93 78 84 81 64 68 67 61 64 63 64 66 66 68 68 68 69
80 69 62 55 55 57 53 54 59 57 50 52 65 61 45 39 35 38 49 44 36 39 40 43 36 20 18 19 13 9 8 12 15 14 14 14 14 12 10 11 10 9 9 10 14 14 14 17 14 11 14 12 9 10 11 8 6 9 9 7 9 12 12 12 18 22 19 25 25 28 63 78 61 71 83 71 68 70 65 64 65 67 68 68 69 68 69 70
79 71 72 66 61 59 54 52 51 50 51 51 53 48 39 44 43 33 32 33 35 39 40 44 39 22 16 17 14 8 8 13 16 15 15 15 15 12 9 11 10 10 9 9 14 15 13 18 18 13 11 10 10 11 14 13 9 9 7 5 9 10 12 13 15 20 18 21 28 29 42 59 55 59 71 67 63 65 65 66 68 68 68 67 67 68 69 71
76 75 84 79 72 68 58 50 47 48 51 47 40 34 33 39 39 28 24 28 33 37 41 51 51 35 18 12 13 9 7 12 15 15 14 13 15 12 9 9 9 10 10 8 12 15 15 18 20 16 10 11 14 11 12 14 10 11 10 8 10 8 11 14 12 15 15 16 25 25 34 63 73 64 61 59 56 59 62 66 67 65 65 65 66 68 71 72
70 82 91 80 75 72 59 51 49 44 42 38 31 29 33 36 31 24 24 27 30 33 38 48 56 48 30 17 14 9 7 13 15 15 14 12 15 15 10 9 10 11 10 10 12 15 16 17 20 19 13 12 13 9 9 10 9 11 12 10 11 9 10 15 15 15 12 14 19 18 43 85 90 73 66 58 54 57 59 62 65 63 64 65 66 68 70 71
70 91 91 79 79 70 51 46 43 36 34 31 28 30 33 33 29 24 24 26 28 29 33 40 46 48 39 28 19 10 8 13 15 14 14 12 14 14 9 8 10 9 10 11 12 14 16 17 20 19 14 12 11 8 8 9 8 9 10 10 9 8 10 14 18 17 12 15 13 12 54 99 90 73 73 62 57 60 59 60 63 64 65 66 66 67 68 68
82 94 86 80 77 60 49 47 36 29 30 25 24 30 30 28 30 27 23 26 29 30 36 41 39 40 36 27 21 13 8 12 15 14 14 14 15 14 9 8 9 8 10 12 12 14 18 20 20 18 12 9 9 8 7 9 11 10 10 10 7 7 11 10 13 15 12 17 13 12 59 101 89 74 73 65 63 64 60 61 63 66 67 64 65 66 65 64
89 81 70 71 67 58 59 55 38 26 26 28 30 32 29 25 27 27 25 26 29 34 43 42 33 31 28 23 22 17 10 13 17 15 13 14 15 13 9 7 9 9 10 13 13 15 20 21 20 23 21 18 21 20 14 13 15 14 11 9 8 9 11 9 12 14 13 19 14 14 57 95 88 79 76 69 69 68 64 64 63 66 67 64 65 66 62 62
77 54 50 57 59 63 63 57 55 43 28 34 43 38 34 30 23 24 26 24 24 32 42 40 31 27 26 23 24 20 13 13 17 16 14 16 19 14 8 8 11 8 8 15 15 14 19 20 19 25 25 25 31 30 22 18 17 16 13 10 10 8 8 12 14 14 17 21 11 18 65 98 90 83 81 74 74 75 71 67 64 64 64 63 64 64 60 60
69 45 45 53 55 60 52 46 64 66 42 40 49 44 39 35 27 25 28 29 27 29 36 38 33 30 30 29 30 27 15 10 16 16 14 23 25 16 12 11 8 9 17 24 20 14 20 27 31 36 33 28 28 23 17 17 17 18 15 12 12 10 10 12 13 15 20 19 17 38 77 99 95 90 86 79 77 77 74 71 69 66 63 62 62 60 59 57
67 44 37 43 44 45 41 38 51 58 47 42 48 48 40 35 35 35 36 37 34 34 40 39 34 36 37 32 35 35 21 13 20 21 24 37 32 17 15 11 8 22 31 24 15 15 23 37 48 51 45 36 30 22 17 17 17 18 17 15 15 14 14 14 15 21 21 20 38 67 82 89 94 90 84 82 81 79 76 73 71 67 63 61 58 56 56 55
63 42 26 35 43 37 33 37 42 45 48 47 50 54 49 41 43 46 46 44 39 38 44 44 37 36 34 29 35 40 31 24 26 26 30 42 36 24 21 13 13 30 30 14 12 18 25 41 52 49 42 35 32 27 21 17 16 15 17 20 21 19 21 21 19 23 29 37 58 74 76 82 88 83 80 81 79 77 76 71 66 63 59 56 54 53 54 52
60 41 27 39 57 51 39 41 46 51 59 57 51 55 58 55 56 55 52 53 52 43 42 49 45 33 27 28 31 38 43 39 32 29 37 44 38 31 27 18 17 24 19 14 18 19 25 42 49 44 41 36 32 31 28 26 27 24 20 22 23 20 21 25 26 30 41 55 64 67 73 82 81 76 78 77 73 73 72 66 62 60 56 53 52 53 52 50
69 60 53 56 62 62 60 61 60 61 67 70 64 59 60 64 67 64 54 54 64 57 44 47 46 33 30 30 28 38 53 49 35 38 57 61 47 36 31 26 24 22 17 19 26 29 36 47 46 43 48 47 37 37 41 42 42 39 33 29 28 32 36 41 47 50 55 64 66 69 83 91 82 74 76 75 73 73 70 67 64 59 55 53 52 52 52 50
75 74 78 82 75 72 78 79 77 78 78 81 81 72 71 74 73 73 64 50 53 57 49 46 46 43 39 34 31 39 48 43 34 40 59 60 42 33 33 29 25 24 21 24 36 43 44 49 48 43 50 55 45 42 50 51 51 54 56 52 47 49 56 57 56 55 59 70 75 75 85 93 85 77 76 76 74 74 72 69 66 60 55 54 53 52 52 51
75 72 78 89 86 82 85 82 83 86 75 72 77 74 79 81 69 75 81 61 46 50 50 50 56 58 52 44 46 46 38 30 31 41 58 56 35 25 29 27 20 21 25 31 40 42 39 46 50 41 45 56 51 49 53 49 48 57 65 68 64 55 55 59 58 56 57 62 65 63 71 82 81 76 78 80 75 74 73 68 64 61 56 54 53 52 52 53
Wind_Speed
9 9 9 8 9 9 9 9 9 9 9 10 10 10 10 10 11 11 12 12 12 12 14 15 15 17 19 18 17 17 18 19 18 16 16 14 11 11 12 9 5 7 7 7 10 11 13 14 14 14 11 9 8 7 7 7 7 5 6 7 7 7 5 4 6 3 3 8 5 5 3 4 9 10 5 6 7 8 9 6 8 7 6 10 18 20 20 21
9 9 9 9 9 8 8 8 9 9 9 9 10 11 11 10 10 11 12 12 13 12 13 15 15 17 18 17 16 16 18 20 19 19 19 17 16 17 16 14 9 8 10 11 12 14 13 12 13 13 10 7 7 6 6 7 7 7 7 6 7 7 2 2 3 4 4 5 3 5 3 3 4 8 8 10 9 10 9 9 10 9 9 11 20 18 17 19
9 9 9 9 9 8 9 9 9 9 9 10 10 10 10 11 11 11 12 12 12 13 14 15 16 17 17 16 16 14 17 19 18 15 10 11 16 19 18 16 15 11 13 13 12 14 12 11 12 11 10 7 7 7 6 7 7 8 7 6 8 5 2 3 3 5 4 3 2 3 2 2 3 3 7 9 9 11 10 10 11 11 11 12 17 15 15 17
9 9 8 9 9 9 9 9 10 10 11 11 11 11 10 10 11 11 12 12 12 12 13 15 16 17 16 16 13 12 15 16 11 2 9 9 8 10 11 15 19 16 14 13 11 14 13 10 11 11 10 8 7 7 7 7 7 7 8 9 4 1 1 4 4 2 4 2 2 2 3 6 5 2 5 7 8 9 9 10 10 12 14 11 14 13 14 15
8 8 8 8 9 9 10 10 10 11 11 10 11 12 11 11 11 11 11 12 12 12 13 14 16 16 16 14 10 11 12 8 2 11 12 8 6 4 3 9 19 20 16 14 13 13 13 11 11 11 10 8 8 8 8 9 8 6 9 12 5 2 4 6 7 3 3 1 0 2 2 3 4 6 7 8 6 3 5 9 8 13 15 10 13 14 14 14
8 8 8 8 9 10 10 11 11 12 12 11 11 11 11 11 11 11 10 11 12 12 13 14 15 15 15 11 9 11 10 4 5 10 7 4 3 3 2 4 15 20 18 16 15 14 14 13 11 11 9 9 9 9 9 10 10 7 8 11 7 4 5 5 7 5 3 4 2 1 1 2 4 7 8 7 2 5 4 7 8 15 14 12 13 12 14 13
8 8 8 8 9 10 11 12 12 12 12 12 11 11 11 10 11 11 10 11 11 11 12 13 14 15 13 10 10 10 10 10 2 7 5 2 4 6 1 3 13 19 19 18 17 14 13 14 13 11 10 10 9 10 10 10 11 10 8 9 8 8 6 4 5 6 5 4 1 1 1 5 6 6 8 4 5 6 6 7 10 14 11 12 12 10 12 13
8 7 8 9 9 10 11 12 12 12 12 12 12 11 10 10 10 11 10 11 11 11 12 12 13 13 11 10 10 8 10 15 5 6 2 6 6 5 2 6 15 19 20 20 18 15 14 15 15 11 10 10 9 10 10 10 11 12 10 6 7 9 7 5 5 6 7 4 3 2 4 6 3 4 9 6 7 7 6 7 10 13 12 12 12 10 12 13
8 8 8 9 10 11 11 12 12 12 12 11 11 11 10 10 10 10 10 10 10 11 11 11 13 10 8 9 9 7 7 10 4 4 2 4 3 4 6 10 17 19 20 21 19 17 14 13 15 13 11 10 9 10 10 9 8 11 13 8 6 8 8 8 8 8 8 5 4 6 7 6 3 3 8 8 7 7 6 7 9 13 14 12 10 9 11 12
9 9 9 9 10 11 12 12 12 12 12 11 11 11 11 10 10 10 10 10 10 10 10 11 11 9 9 9 10 7 3 2 1 2 1 3 5 8 10 11 16 19 20 20 20 19 15 13 14 12 12 10 9 9 10 10 4 5 12 12 9 9 8 9 10 11 9 7 7 8 8 7 7 8 6 8 8 7 8 8 8 11 12 11 9 7 9 11
9 9 9 10 11 11 12 12 12 12 12 12 11 11 11 10 10 10 10 10 10 10 9 10 10 9 11 9 9 6 3 3 3 2 2 3 6 9 11 10 13 19 19 18 20 20 17 16 12 9 9 8 9 10 11 12 6 3 8 11 11 10 8 10 11 11 9 8 9 9 8 9 10 9 3 9 10 7 8 9 9 10 12 10 8 7 6 8
9 9 9 10 11 12 12 12 12 12 12 12 12 11 10 10 10 9 10 10 9 9 8 8 8 8 10 8 11 10 2 3 3 2 2 3 5 7 8 9 12 17 18 17 19 19 18 16 12 11 7 5 9 9 8 13 11 6 6 9 12 11 10 12 12 11 10 10 12 11 7 9 12 9 6 8 8 6 7 8 9 10 14 9 7 7 6 7
9 9 9 11 12 12 12 12 12 12 11 11 11 11 10 11 11 10 10 10 9 9 8 8 8 9 11 7 13 19 12 8 7 6 7 5 5 6 6 8 12 16 17 17 17 17 18 14 11 13 7 6 8 2 2 11 11 8 8 9 10 11 11 14 14 14 14 10 13 12 7 9 13 11 10 6 6 6 7 7 9 10 14 11 8 8 6 7
10 9 10 11 12 12 12 12 12 11 11 11 11 11 11 11 11 10 10 10 9 9 9 8 8 9 9 8 15 21 18 14 14 13 13 11 9 8 6 8 10 14 15 15 15 16 15 11 10 12 9 10 7 3 3 10 10 9 9 9 8 8 10 15 16 16 15 10 13 13 8 9 13 12 11 8 6 6 7 7 8 8 12 11 10 9 6 8
10 10 10 11 12 12 12 11 11 10 10 10 10 11 12 13 13 12 11 11 10 9 9 7 9 9 7 11 16 17 17 14 15 18 17 14 14 11 8 9 10 11 12 12 13 12 11 10 9 10 9 12 8 4 8 9 8 9 9 8 8 8 9 17 18 17 16 11 14 15 8 6 11 12 11 9 7 7 5 5 7 7 12 8 10 9 7 8
11 10 10 11 11 12 12 11 10 10 9 9 10 12 14 16 16 15 13 12 11 9 9 8 10 10 7 6 5 9 15 16 18 20 18 17 15 14 11 10 11 12 11 11 9 9 10 10 9 9 9 10 9 7 9 8 8 9 9 8 10 10 9 15 17 17 17 13 15 17 8 7 9 9 10 9 9 8 7 7 8 10 11 7 7 9 9 8
12 11 10 11 11 12 11 10 9 9 9 10 12 15 16 17 17 16 13 11 10 9 12 10 7 9 8 7 3 8 15 16 17 17 18 18 16 14 13 11 12 14 13 11 9 10 11 10 8 9 9 9 9 9 9 9 8 8 9 8 10 13 9 12 15 17 19 15 15 19 10 9 9 8 9 8 8 10 9 8 8 9 11 9 6 6 9 8
12 11 11 11 11 11 10 9 9 9 9 11 13 13 12 10 10 10 9 10 10 8 11 10 6 7 8 12 11 9 15 17 14 14 16 19 17 15 14 13 12 14 13 11 11 12 11 9 9 9 9 10 10 10 9 9 9 10 10 9 9 13 10 12 14 16 20 16 14 19 12 11 11 9 8 6 6 7 5 5 5 6 8 11 8 5 7 8
13 12 11 11 10 10 9 9 8 8 9 10 13 11 8 5 6 9 10 12 11 8 7 8 11 7 1 10 15 6 7 11 11 12 15 18 19 16 15 14 13 15 13 9 12 13 10 9 10 10 10 11 13 13 12 10 11 12 12 10 9 11 10 11 13 16 19 15 13 18 13 11 11 9 9 8 7 6 6 5 4 5 6 10 9 5 7 8
13 12 11 11 10 9 9 9 8 8 9 10 12 10 8 7 7 9 11 13 13 11 10 9 18 15 4 4 11 6 5 8 10 13 16 18 19 17 15 14 13 13 13 11 12 13 10 10 11 12 12 14 15 16 17 13 9 11 13 12 10 10 10 10 14 18 19 13 13 18 14 12 10 10 10 9 10 8 8 7 5 5 5 8 9 6 8 9
13 12 11 10 9 9 9 8 8 9 9 9 10 8 7 7 4 3 7 13 17 20 20 12 16 20 12 1 4 3 5 9 12 14 17 20 20 17 14 14 14 12 13 14 12 11 12 11 13 16 15 16 17 16 18 14 8 9 11 11 10 10 10 9 11 16 18 13 12 17 15 12 10 10 10 9 12 11 10 9 7 7 9 10 10 10 10 9
13 12 11 10 9 9 8 8 8 10 10 9 11 11 10 7 5 5 4 8 16 23 23 19 16 17 15 11 5 3 7 11 14 15 18 21 19 16 14 15 15 12 14 15 11 10 12 12 15 18 16 16 15 15 17 13 9 9 9 10 9 10 10 9 11 14 15 11 9 12 11 10 9 10 9 10 13 12 11 11 9 10 11 11 10 10 11 10
13 11 10 10 8 8 8 8 9 11 11 11 13 13 12 9 6 7 7 7 10 17 20 19 19 17 15 16 10 8 10 11 13 15 19 20 18 16 15 16 16 14 16 16 13 11 10 12 16 17 16 16 15 16 17 11 9 9 9 9 8 11 13 9 11 14 14 9 7 11 9 8 9 9 8 11 14 14 13 13 12 12 12 12 11 11 11 11
12 11 10 8 7 7 7 9 10 12 13 13 15 15 12 8 6 7 7 7 9 12 17 19 18 16 16 16 13 13 12 10 11 15 20 19 17 15 15 16 17 15 15 18 17 13 11 12 17 18 17 17 15 17 17 11 8 11 11 10 9 13 13 9 11 13 13 11 10 13 9 6 9 11 9 10 13 14 13 12 12 12 11 11 11 11 12 11
11 10 9 7 7 7 7 10 13 15 14 13 15 14 11 8 5 6 6 7 9 9 15 19 15 15 19 18 13 13 11 10 12 12 20 21 18 15 13 12 13 14 17 21 18 13 13 13 16 19 18 19 17 15 16 12 9 10 12 12 11 12 12 13 15 13 10 10 11 14 10 7 11 13 11 9 11 12 11 11 10 10 10 10 10 10 10 10
10 9 8 7 7 6 6 8 8 10 11 12 10 6 7 7 3 4 4 6 8 8 14 16 12 14 20 17 13 12 11 12 13 12 18 22 20 15 12 10 9 14 17 17 12 8 11 12 15 18 18 20 18 14 16 15 9 8 11 15 14 12 12 14 16 13 8 9 13 15 10 6 11 12 12 11 10 11 10 10 10 8 9 9 9 8 8 8
9 9 8 8 7 6 6 5 5 5 6 6 6 4 5 6 2 3 4 6 6 8 15 14 10 16 20 16 16 14 10 11 13 13 16 20 21 15 14 12 10 13 13 11 9 8 11 14 16 18 18 17 15 12 16 17 12 7 12 16 15 11 12 13 14 12 8 8 12 16 14 7 8 10 13 14 11 11 10 9 9 8 9 9 9 8 8 8
8 8 8 8 8 9 10 9 8 7 3 2 4 6 5 3 2 4 4 5 4 8 12 11 10 15 18 17 20 16 10 13 15 14 15 20 21 15 14 16 14 15 15 11 9 9 12 15 16 18 16 13 13 13 15 18 14 9 12 15 12 9 13 14 12 11 9 9 9 15 15 9 7 9 11 14 13 11 10 8 8 8 8 9 9 8 8 8
8 9 9 9 9 11 13 12 10 9 3 1 4 6 5 3 2 4 5 5 5 8 9 11 10 13 16 17 21 19 13 12 14 13 15 19 21 15 12 15 17 16 17 15 11 10 12 14 15 17 14 12 13 15 16 17 15 12 13 15 11 10 11 11 10 10 9 10 9 12 15 11 7 9 10 12 13 11 10 9 7 8 8 8 8 8 8 7
8 9 9 9 10 10 12 13 14 13 7 3 6 5 5 4 3 5 6 5 6 8 9 10 12 15 18 18 18 20 19 14 12 15 16 16 20 17 11 13 15 13 15 16 13 11 11 10 11 13 12 11 13 14 15 16 17 16 11 13 12 10 9 8 9 10 9 10 11 13 15 13 7 8 9 9 11 13 11 9 8 8 9 8 8 7 7 7
9 9 9 10 10 9 9 8 10 14 10 5 6 6 5 4 5 6 7 4 4 8 9 10 14 18 21 20 16 19 20 15 14 19 16 14 17 16 12 12 13 12 13 13 13 13 12 11 10 11 13 13 13 13 14 16 19 17 9 9 11 9 8 8 8 9 9 10 13 15 18 18 10 5 7 6 12 16 12 9 9 9 9 8 7 7 7 6
9 9 9 12 11 9 8 2 0 7 8 5 7 7 5 5 6 7 6 5 4 6 9 12 16 18 21 21 17 19 20 14 16 20 16 15 15 14 14 13 13 13 13 12 13 14 13 12 13 13 15 15 13 12 12 13 16 14 10 11 11 9 8 9 9 9 9 9 11 15 19 15 4 3 11 15 15 15 13 10 10 10 9 8 8 7 6 6
9 9 11 13 12 12 11 4 0 5 5 5 8 5 4 5 7 8 8 6 3 2 6 12 16 18 20 19 16 20 20 15 17 18 17 18 15 15 17 18 18 16 12 13 14 12 11 12 15 15 14 15 15 12 11 11 13 13 12 11 10 9 9 10 9 9 9 9 9 14 17 10 6 7 12 17 16 15 15 12 9 10 9 8 8 7 7 7
7 10 11 12 13 13 12 9 7 6 5 7 7 5 6 6 7 11 10 5 4 2 6 10 16 20 19 17 16 19 18 15 18 18 17 18 14 14 17 20 23 18 11 13 12 12 13 11 13 15 12 15 18 14 12 12 12 13 13 12 10 9 8 9 9 9 10 9 8 12 12 6 7 7 11 15 16 15 15 13 10 9 8 8 7 7 7 7
6 10 12 12 14 13 13 12 10 9 8 8 6 6 8 7 7 10 8 2 4 6 6 5 12 18 17 15 18 21 17 14 19 19 15 16 14 14 15 17 22 20 12 12 9 11 15 11 13 16 12 16 18 14 14 14 11 11 12 11 11 10 9 8 7 5 6 8 8 7 2 4 5 9 13 14 13 14 14 13 10 8 8 7 7 7 7 7
8 11 13 13 13 13 14 13 12 12 10 7 6 8 9 7 4 2 2 2 1 5 5 5 10 15 14 13 16 23 21 14 18 17 13 17 16 17 17 15 20 22 15 11 8 10 12 10 16 18 14 17 17 13 16 15 9 9 11 12 11 12 11 8 6 3 4 8 9 6 5 6 6 7 12 14 14 13 13 12 11 9 9 7 7 6 6 7
11 11 10 11 12 13 15 15 14 13 9 6 7 7 7 7 3 2 4 4 1 3 5 6 9 12 13 13 14 21 22 15 17 16 13 16 16 17 20 17 20 24 19 13 9 9 11 9 15 20 16 17 18 16 17 16 12 9 10 11 10 12 12 8 7 7 7 9 8 9 9 9 7 6 10 15 15 13 13 13 12 11 9 8 7 7 7 7
10 8 6 8 10 11 14 16 15 12 7 6 8 9 7 7 4 2 4 5 1 3 6 5 8 12 14 13 14 21 21 15 16 16 13 14 13 18 22 17 19 24 22 17 10 9 11 7 11 19 18 16 17 16 15 15 16 13 11 11 10 11 12 9 7 8 10 9 8 10 12 9 7 8 12 16 16 16 15 13 13 12 10 9 8 8 8 8
9 6 4 6 8 10 14 16 14 10 6 7 8 8 6 7 9 7 4 2 1 3 5 2 5 11 14 13 13 19 21 16 15 15 13 11 12 19 22 16 18 23 23 18 10 8 11 7 8 16 19 16 14 13 11 12 16 16 13 13 11 9 10 9 8 7 9 9 8 10 11 7 5 9 16 17 16 17 16 13 13 11 10 9 8 8 7 7
7 3 3 7 9 11 14 14 11 8 7 8 8 6 5 8 11 8 3 3 2 2 1 3 5 8 13 15 14 16 18 16 16 14 12 12 12 17 21 18 17 21 23 21 13 9 10 8 7 13 17 15 11 12 14 14 15 13 11 12 11 9 9 9 9 8 8 9 8 9 9 4 2 3 14 17 15 16 16 13 12 11 11 10 9 8 7 7
5 2 3 8 12 14 14 11 8 7 7 8 8 8 8 8 6 4 2 1 2 2 1 4 8 8 7 11 13 15 15 13 15 13 10 13 12 12 18 19 17 19 21 19 14 10 8 7 8 10 14 14 12 14 18 17 16 13 10 11 12 11 10 10 10 10 9 8 8 8 6 4 6 4 7 12 12 14 15 14 12 12 12 11 10 9 8 8
4 1 5 11 15 16 12 7 6 7 7 8 8 8 8 6 5 4 4 3 1 3 4 6 9 8 6 8 10 15 15 12 15 14 9 14 13 10 17 21 19 20 18 14 14 11 6 6 9 10 11 13 15 18 19 17 17 15 12 12 12 11 11 10 9 10 9 8 10 8 5 5 5 5 5 10 12 14 14 14 13 12 11 11 11 10 9 8
2 1 6 11 15 15 10 6 7 8 7 7 8 9 8 6 6 5 3 1 1 3 5 6 8 7 5 7 9 13 17 13 14 15 11 13 14 12 18 22 20 20 17 12 13 11 4 5 9 9 10 12 13 15 15 13 13 14 13 13 13 12 12 11 8 8 8 9 10 6 5 4 3 6 8 12 14 14 13 13 14 12 11 11 11 10 9 8
2 3 5 9 13 12 8 5 6 7 8 8 9 10 9 8 7 6 5 4 2 4 6 7 7 6 4 5 8 11 14 12 13 15 12 12 13 14 19 22 19 18 15 11 10 9 5 7 8 8 9 10 8 9 12 12 11 11 11 14 15 15 17 13 9 8 7 10 12 7 3 5 6 5 7 12 15 14 12 12 12 12 11 11 10 10 9 8
2 4 5 8 10 8 6 4 4 5 6 7 9 9 8 7 6 5 6 5 4 6 8 7 7 7 6 6 7 9 13 13 12 13 12 10 10 11 17 20 17 16 15 13 11 9 6 8 8 8 11 12 10 9 10 11 10 9 11 16 18 19 20 14 9 8 7 10 13 7 5 7 9 10 11 12 14 14 13 12 11 11 11 11 10 9 8 8
2 3 5 6 7 6 6 5 6 6 5 6 7 8 10 9 5 3 5 7 8 9 9 8 8 8 8 8 7 7 12 14 11 10 12 10 9 10 15 19 19 16 14 13 12 10 6 6 5 5 6 5 8 12 12 12 12 12 15 18 17 17 18 14 10 8 7 9 8 5 14 15 12 13 13 13 14 14 13 12 12 11 11 11 10 9 9 8
2 2 6 6 5 6 7 7 8 6 4 5 4 4 9 9 4 2 4 6 7 7 8 9 10 9 8 8 7 6 11 14 12 11 11 10 8 11 14 18 16 10 11 12 12 9 6 5 3 2 2 2 5 9 13 15 15 16 16 16 15 14 14 11 10 5 3 5 3 8 18 19 14 14 14 13 13 13 12 12 12 12 11 11 10 10 10 9
1 1 4 4 2 5 6 6 7 5 3 6 3 3 6 9 6 4 4 5 6 7 7 7 10 12 10 8 8 7 8 11 13 13 11 10 11 13 14 18 15 9 9 13 12 8 6 6 5 5 6 4 2 4 10 14 15 16 16 14 13 13 11 10 9 4 4 1 6 11 15 16 15 14 14 13 13 13 13 12 12 12 12 12 11 11 11 10
2 2 3 3 1 4 3 2 4 4 1 3 3 2 5 7 8 6 4 5 6 7 8 8 9 12 12 10 8 7 4 6 11 11 5 5 9 11 12 15 14 10 12 13 10 8 6 5 7 8 8 7 5 5 8 8 6 7 11 11 10 11 12 11 8 2 6 11 14 16 17 15 13 13 14 13 12 13 12 12 12 13 12 12 12 11 10 10
2 1 1 0 2 3 1 2 1 2 1 3 2 3 5 7 8 8 6 6 6 7 9 11 11 11 10 10 10 8 4 6 10 10 5 2 7 9 9 10 12 12 14 13 9 6 4 4 8 9 7 7 8 8 7 8 9 9 7 7 7 8 9 9 8 11 14 15 17 20 19 13 10 13 15 13 12 12 12 13 13 12 11 12 11 11 10 10
5 3 3 3 3 1 2 3 3 1 0 0 2 3 4 7 9 8 7 8 9 9 9 11 11 9 9 11 11 7 3 5 6 9 7 6 8 8 7 7 12 14 14 12 8 6 5 5 8 9 7 7 9 11 13 14 15 14 11 8 6 6 8 9 8 9 14 18 19 17 13 10 10 13 14 13 13 14 13 13 12 11 11 11 11 11 10 10
7 3 2 2 3 1 2 3 4 1 2 4 7 7 6 8 11 10 7 6 8 11 9 8 7 6 7 9 6 1 1 3 5 9 6 7 7 7 6 8 13 14 11 10 8 6 8 7 6 7 7 7 9 10 13 14 12 9 8 5 2 5 10 11 11 11 13 16 13 8 9 12 14 15 15 15 15 14 13 12 11 11 11 11 11 11 11 10
Wind_Direction
331 329 330 333 331 329 326 324 322 318 315 315 318 319 317 318 316 318 321 320 322 321 320 321 320 321 317 317 316 317 325 315 303 284 254 246 243 241 239 246 258 208 192 198 198 193 189 202 203 200 212 201 216 224 189 207 230 220 232 236 228 234 225 179 176 179 78 91 93 106 154 242 151 167 162 164 197 139 156 159 111 103 84 95 104 113 123 126
329 327 327 326 328 328 327 327 325 322 317 314 315 317 319 319 317 317 317 318 319 319 321 320 319 319 316 315 316 323 326 308 290 277 262 250 244 243 244 243 236 188 188 207 202 196 193 199 196 197 211 204 203 198 176 195 215 221 230 230 230 238 194 114 91 68 55 79 78 102 141 275 150 156 159 185 183 154 171 155 144 130 111 111 110 122 132 127
324 324 323 322 323 324 325 326 324 323 318 312 312 313 312 313 315 315 315 317 316 318 318 317 319 318 315 315 318 328 322 303 282 271 246 226 233 238 241 233 220 193 196 213 206 203 208 202 193 200 215 214 197 184 185 187 199 225 237 235 233 243 102 89 57 58 57 53 55 89 147 185 127 139 173 196 172 170 187 158 162 145 130 128 118 129 133 128
320 319 319 319 320 320 320 320 320 321 316 308 306 308 306 304 309 312 313 316 315 318 316 316 318 315 317 316 319 329 315 292 274 193 128 155 188 207 222 219 209 198 203 220 219 215 224 214 197 210 224 222 201 195 206 183 189 220 226 238 246 354 220 169 167 115 83 18 19 96 187 165 147 171 196 200 168 184 194 160 174 149 130 131 130 137 135 135
314 315 316 317 318 319 317 317 316 315 315 307 299 301 304 302 306 309 308 314 316 317 316 314 314 315 317 314 319 324 301 276 120 103 120 143 123 121 176 205 203 198 204 220 223 220 227 224 208 216 230 233 204 199 218 196 203 230 224 248 293 356 233 169 158 140 111 210 191 177 208 130 164 183 200 210 172 192 179 154 169 137 125 139 147 144 139 139
310 310 312 314 315 317 316 315 312 309 311 308 298 295 296 299 303 308 307 309 312 315 315 312 314 316 313 312 312 298 268 259 86 115 140 137 71 11 45 184 197 196 206 217 218 216 221 221 213 215 224 235 214 203 220 200 208 239 222 239 270 265 234 154 152 150 159 208 189 245 83 115 218 174 186 222 114 40 85 120 106 105 121 150 145 141 141 139
306 306 305 310 311 313 314 312 311 307 305 305 299 291 290 295 298 304 306 307 310 314 313 310 315 316 316 321 296 266 246 270 279 141 184 234 316 320 4 183 189 193 207 212 212 212 212 214 214 215 218 230 222 210 220 201 202 234 236 221 226 236 233 175 166 164 181 210 186 294 144 181 216 160 169 206 91 79 93 100 93 104 138 150 139 150 141 131
301 301 300 305 307 310 311 309 310 306 304 300 295 292 291 294 295 298 302 304 307 310 311 310 313 315 323 325 289 245 236 254 232 118 242 262 289 297 208 182 186 196 208 209 209 208 210 213 213 216 221 227 226 217 218 205 203 225 244 232 207 220 226 211 202 187 189 206 194 197 187 182 203 162 166 155 112 114 114 114 119 131 144 133 139 157 132 123
294 297 295 300 304 307 308 307 307 305 305 301 296 299 297 295 295 296 299 301 302 305 310 309 310 313 315 307 280 255 237 235 193 93 286 247 228 217 191 183 189 199 207 209 211 208 210 214 213 219 230 235 234 226 212 207 210 215 228 235 213 211 213 212 208 199 195 197 187 183 188 168 138 178 165 142 120 122 136 139 142 147 139 124 139 147 123 124
290 292 292 298 301 303 304 304 304 302 304 301 298 298 297 297 294 295 298 298 301 301 305 305 307 310 299 278 254 245 196 156 131 106 197 208 193 193 197 194 190 199 207 208 209 209 212 216 216 223 241 253 252 236 210 206 213 204 222 228 222 217 202 204 205 197 197 194 189 190 186 154 157 200 185 143 135 144 161 151 155 155 130 122 136 134 119 121
285 288 291 296 298 301 303 301 300 299 299 297 296 295 293 294 292 296 295 293 296 296 301 301 300 299 290 271 240 229 123 148 200 130 125 188 198 200 205 207 197 204 210 207 209 210 214 220 221 225 235 250 251 240 217 216 234 225 228 226 219 226 206 201 207 196 198 194 188 198 181 149 173 206 173 127 140 167 173 154 170 156 114 108 115 106 104 110
281 283 289 295 298 302 302 300 299 297 297 293 294 294 291 291 291 293 292 293 294 294 299 293 289 286 278 266 238 235 143 143 189 141 189 183 197 211 218 227 214 211 212 210 210 209 214 220 228 232 220 228 234 234 221 216 234 236 227 229 209 216 218 206 208 197 202 192 179 199 186 160 186 183 111 117 137 170 182 162 179 152 113 112 107 91 84 101
275 278 286 293 298 302 300 299 297 296 296 294 295 296 292 290 289 289 290 290 288 289 290 280 281 274 267 260 238 240 248 252 258 263 240 225 223 215 222 236 222 218 220 219 212 206 215 217 228 237 227 232 223 214 234 205 220 226 212 233 209 203 215 205 203 198 199 185 170 196 197 176 187 158 125 142 144 165 190 175 185 155 126 132 118 104 102 103
270 274 281 291 298 300 299 297 295 295 293 292 293 292 289 286 284 284 282 281 283 284 279 267 266 261 252 257 251 247 250 257 261 252 237 231 230 223 221 226 217 217 222 228 220 206 210 209 226 240 230 240 231 114 213 200 204 220 208 229 223 209 204 193 198 196 190 174 168 198 217 183 171 145 140 159 154 182 193 173 186 155 121 129 122 117 124 103
266 268 276 288 295 296 295 292 295 296 292 293 292 288 289 288 285 280 274 273 275 271 265 253 246 248 250 260 259 246 236 241 248 242 232 223 222 227 220 207 207 210 211 224 220 197 194 198 219 236 216 231 249 206 210 204 198 214 211 214 219 227 196 182 191 192 188 174 174 204 224 157 141 135 148 159 163 194 192 169 179 118 87 115 139 132 123 100
263 263 271 283 289 291 290 290 294 295 294 296 291 289 292 292 289 279 266 261 262 252 244 236 221 229 263 274 242 212 214 222 235 233 226 219 218 221 208 192 197 197 196 206 203 179 185 201 212 229 218 212 232 222 204 203 200 207 219 209 206 225 198 173 183 190 194 180 177 209 214 117 123 130 143 156 163 179 182 178 175 132 107 130 148 133 128 118
260 260 265 275 283 285 288 289 289 291 294 293 292 297 296 290 285 275 259 246 245 230 232 241 213 212 259 284 249 210 209 211 223 221 212 211 213 212 193 181 190 187 185 186 184 179 185 202 205 216 226 209 212 217 206 204 199 197 215 213 206 217 195 165 178 187 200 193 180 208 206 111 122 122 126 152 165 178 184 174 168 156 145 137 122 127 134 128
258 260 262 269 277 280 285 287 284 289 290 290 299 306 300 283 266 257 234 214 214 211 231 251 230 211 247 249 237 225 213 204 203 203 201 198 202 207 187 180 186 178 181 179 182 188 183 194 203 205 215 211 207 214 216 205 199 196 203 213 204 206 194 172 181 185 198 201 184 203 197 122 124 113 105 121 142 165 166 147 145 152 153 138 128 136 129 114
255 258 261 265 273 276 280 279 280 288 287 294 302 297 283 268 240 226 198 190 191 188 215 208 196 213 317 213 209 191 180 181 180 194 194 186 192 201 189 185 184 180 186 181 185 191 184 190 203 209 209 206 206 211 219 214 205 199 198 216 206 197 198 179 181 182 190 200 188 198 190 130 125 113 99 96 104 124 123 129 140 132 145 137 130 129 117 105
251 255 259 262 268 274 276 274 276 282 282 294 299 282 248 222 216 212 190 193 203 213 235 190 186 222 289 149 188 177 145 163 187 201 191 181 184 191 190 187 183 188 195 188 185 185 188 200 203 210 208 204 207 210 221 228 223 206 199 214 210 198 206 185 178 178 184 199 194 196 182 134 119 107 100 97 96 98 102 105 110 113 118 119 122 117 98 91
248 251 256 260 266 271 272 272 273 277 281 284 280 264 238 221 222 232 188 201 216 228 247 228 195 227 253 201 152 192 209 194 200 203 187 180 183 186 187 186 186 192 201 196 185 179 194 210 207 209 210 207 207 210 221 233 245 225 201 206 208 203 205 172 159 170 181 202 201 191 172 139 123 104 98 95 90 82 81 83 81 92 91 90 106 109 93 86
247 246 252 259 264 269 269 272 272 277 283 273 255 244 252 273 325 328 270 230 224 222 238 243 226 235 247 249 232 227 240 204 194 196 181 177 186 189 179 185 194 190 195 197 184 183 201 216 211 205 210 212 206 209 220 225 231 229 208 208 206 202 196 158 151 172 186 206 193 172 157 139 130 110 102 95 89 81 74 74 69 74 79 76 81 91 91 85
244 243 249 256 263 268 267 269 270 273 270 254 245 239 250 273 310 304 279 276 254 222 221 231 234 234 235 240 224 208 231 209 193 187 176 179 190 194 184 186 198 193 193 199 190 191 201 211 210 203 207 211 202 205 214 215 218 224 216 211 202 201 199 164 160 180 193 210 181 161 156 140 136 130 119 101 95 90 79 76 72 71 74 73 71 74 77 77
238 240 246 254 263 266 264 271 268 262 252 241 244 244 248 265 288 293 275 269 271 239 217 213 220 228 226 228 210 202 221 218 208 184 172 187 192 193 198 191 197 201 198 200 197 202 209 203 203 202 202 206 202 202 207 206 209 221 223 220 210 204 194 157 162 179 192 207 187 177 180 163 164 159 139 112 103 98 88 84 79 76 78 75 73 69 65 67
232 235 243 251 259 262 265 271 262 249 238 233 241 242 243 251 261 282 282 260 256 240 216 204 207 220 219 220 204 198 214 220 228 191 171 192 196 189 200 195 201 207 200 201 200 208 217 199 193 199 198 201 206 201 201 202 203 213 224 231 226 205 184 166 172 177 187 199 187 190 199 185 184 173 151 136 114 103 94 87 81 78 81 75 69 67 63 65
226 230 240 247 252 260 259 267 264 241 231 233 238 227 214 216 226 276 270 256 251 218 193 187 189 196 202 208 189 188 213 214 224 202 172 192 203 194 198 192 204 214 201 199 203 212 217 195 189 200 196 197 206 200 197 202 211 211 206 224 232 209 190 177 174 178 193 198 186 196 212 187 179 177 162 151 124 115 108 92 88 82 78 73 67 67 68 67
223 227 238 245 245 242 240 283 313 248 228 224 207 166 171 183 186 272 242 241 244 184 171 173 170 172 182 188 175 184 209 183 197 210 181 188 202 203 209 195 194 217 201 188 207 211 210 198 189 196 193 192 202 200 194 199 218 217 180 206 231 215 195 179 177 193 204 198 186 196 217 210 178 176 163 155 139 131 126 105 94 88 80 79 73 72 73 70
223 228 237 243 240 236 245 284 294 242 217 106 157 170 177 188 227 238 229 227 192 142 156 165 154 164 175 176 176 197 212 162 175 202 184 187 199 204 214 203 195 210 198 190 207 191 197 205 187 186 191 195 203 202 196 197 217 226 177 192 225 221 201 186 189 209 204 203 197 195 212 221 188 171 161 160 157 145 137 123 100 91 88 84 80 75 75 74
225 232 237 240 240 240 248 266 263 241 247 78 173 191 194 212 245 224 232 224 166 133 147 152 150 171 179 173 181 203 214 182 174 180 174 187 203 210 220 209 199 207 202 201 212 188 193 207 187 185 198 202 201 203 200 196 214 230 189 183 208 220 209 196 202 214 207 218 214 193 205 225 199 163 168 179 170 153 137 126 108 98 94 85 83 78 73 75
230 234 236 236 236 236 240 246 243 241 250 217 192 198 205 226 229 202 208 216 175 152 150 153 163 179 178 173 185 199 207 203 175 166 172 185 200 210 226 219 204 208 205 202 217 208 184 185 186 195 209 206 197 201 201 194 212 228 197 179 201 211 211 211 216 219 215 219 212 201 207 220 211 162 181 199 166 149 137 130 127 113 101 91 85 82 78 78
234 233 228 227 230 233 232 235 229 221 218 210 204 209 212 221 231 206 187 200 187 154 151 167 174 177 179 177 183 190 200 205 173 166 175 180 191 200 209 215 202 203 205 198 216 215 180 175 196 204 210 207 197 200 199 193 212 223 198 188 202 197 204 214 218 224 227 220 205 204 208 213 221 188 169 140 127 139 137 130 134 121 109 103 94 89 85 78
232 228 222 223 232 237 229 248 353 187 183 192 208 214 212 205 226 225 188 183 200 168 167 178 175 176 181 182 182 183 193 199 174 171 178 178 187 194 198 204 192 193 201 193 206 213 193 189 199 200 204 206 198 196 194 191 208 211 193 201 204 187 196 206 206 211 227 230 205 204 212 208 205 94 122 114 116 128 123 121 129 120 112 107 100 95 86 77
226 223 224 226 232 233 227 242 303 144 146 197 213 216 222 210 209 217 208 186 177 209 190 174 172 177 180 182 182 181 191 196 174 172 181 182 186 191 200 208 198 196 202 193 197 205 198 192 195 197 198 200 205 200 186 188 199 197 193 203 202 190 192 199 204 204 219 231 212 212 217 190 114 84 106 113 117 117 111 113 116 110 107 102 95 89 82 76
221 221 227 230 232 229 225 227 212 185 194 219 218 206 212 223 206 204 213 187 132 208 215 177 172 178 183 188 181 177 192 196 177 176 183 184 187 190 198 207 201 199 203 196 196 199 199 194 193 201 190 188 209 211 188 190 195 192 202 210 208 205 197 196 207 206 207 214 211 219 221 172 135 133 116 115 120 118 113 113 110 106 104 97 88 84 80 74
225 228 231 232 230 226 220 217 210 210 221 220 217 207 205 218 207 196 204 158 124 183 207 208 189 179 183 192 181 179 195 194 179 184 187 185 191 189 191 202 199 198 200 195 196 199 204 199 188 198 192 185 205 212 190 192 196 193 206 216 214 211 202 198 215 229 226 214 202 206 202 80 114 133 124 122 124 123 120 121 122 116 109 102 91 84 81 75
237 235 230 225 223 216 208 208 203 206 218 221 222 218 210 219 226 223 296 342 122 174 186 219 207 184 179 190 180 181 197 197 180 187 192 189 194 191 190 198 197 199 201 195 195 193 200 201 181 185 194 190 197 209 200 195 193 191 205 215 214 215 214 207 209 241 271 232 198 162 109 101 121 131 131 129 125 126 128 127 129 124 116 111 99 89 82 75
243 233 217 210 213 205 196 195 192 198 215 226 229 232 227 233 238 28 311 275 178 188 204 201 205 194 182 187 181 178 190 194 183 189 194 190 195 193 191 196 196 201 205 199 199 195 198 205 180 178 191 189 188 209 215 204 199 198 203 209 211 216 220 220 211 207 220 227 202 164 148 147 154 151 141 139 136 137 136 132 132 129 125 118 106 99 88 79
244 228 208 198 197 190 184 183 184 194 217 226 237 250 253 264 264 185 234 246 193 230 229 196 206 208 189 186 182 178 184 188 184 190 192 188 194 192 191 194 193 200 205 200 195 195 200 204 177 180 191 184 181 204 217 206 212 221 208 199 211 217 212 209 217 215 208 212 206 179 168 173 187 168 154 156 151 144 142 140 137 131 129 122 112 106 96 86
241 216 190 175 176 172 171 177 185 201 225 222 230 242 245 266 263 245 246 258 261 254 242 217 227 211 193 192 186 179 185 187 185 192 191 189 189 187 192 195 188 194 202 200 193 192 201 204 177 183 190 181 177 198 206 194 209 227 218 202 215 227 214 206 213 219 213 211 209 194 185 186 198 168 161 164 158 149 146 141 137 131 128 123 113 108 99 87
239 211 138 157 170 163 164 176 192 206 221 225 230 237 242 248 239 232 266 303 308 301 298 341 292 230 197 196 191 184 187 184 188 197 192 187 183 182 192 194 184 189 198 198 192 190 202 204 182 181 187 187 185 195 202 194 196 213 216 204 207 214 211 213 216 216 219 217 208 202 191 155 35 156 162 161 159 152 143 135 134 131 124 117 108 106 97 85
227 222 130 159 166 161 164 178 200 209 216 227 236 239 249 262 247 214 204 254 327 324 303 301 285 266 225 207 197 187 182 180 193 200 187 184 188 186 191 190 184 188 195 196 190 187 200 200 187 184 188 195 193 191 200 204 196 195 207 209 205 203 206 211 214 216 222 223 215 206 179 98 6 331 160 153 149 142 136 134 131 124 119 112 106 103 94 87
240 240 133 153 165 169 176 193 202 210 220 223 232 241 245 258 270 248 205 174 202 257 257 263 261 265 256 238 219 194 184 181 191 196 188 183 187 191 188 186 186 187 192 198 188 183 204 206 191 194 196 194 191 192 202 209 203 196 205 217 208 199 209 214 210 212 216 226 229 213 149 85 2 357 102 119 124 128 131 131 126 120 116 111 106 100 92 88
235 128 127 153 173 183 198 218 204 208 223 223 233 250 251 244 247 248 226 204 295 268 261 260 255 254 231 234 241 208 189 181 186 194 192 178 180 194 189 183 185 187 189 200 186 172 197 222 196 197 200 193 188 191 198 207 212 203 203 219 218 204 209 220 222 216 212 223 230 212 142 117 43 33 72 101 115 123 127 126 123 121 116 110 108 102 94 92
183 143 126 152 178 196 217 227 214 210 211 219 237 246 248 246 241 240 234 218 233 264 265 262 251 249 234 235 254 229 197 180 184 194 194 179 178 194 190 182 187 188 185 195 184 162 185 213 195 189 191 187 190 196 192 198 216 214 201 209 217 211 209 219 232 224 219 230 226 208 140 132 127 103 98 110 118 121 123 124 123 120 117 113 110 104 100 98
186 144 123 150 178 209 237 253 277 254 215 218 243 252 253 248 234 248 267 254 242 255 264 270 263 266 274 259 257 243 211 188 180 190 195 178 166 184 188 183 190 193 184 188 183 167 193 209 195 200 199 187 188 197 194 193 203 215 209 206 212 216 210 207 220 219 217 233 228 204 130 126 134 135 133 127 124 122 122 123 120 118 118 116 115 111 106 100
227 142 134 161 184 219 243 254 267 266 242 226 241 252 248 237 208 212 266 262 253 252 258 272 276 278 279 257 248 244 212 188 172 187 189 163 155 182 185 183 193 190 172 172 177 172 190 205 197 221 225 208 203 200 194 194 196 205 212 208 211 222 216 205 210 214 209 227 234 146 128 137 142 144 142 136 130 126 126 126 122 121 119 116 117 115 107 103
269 158 155 169 187 209 226 241 242 244 242 227 233 255 238 230 220 200 229 247 253 256 262 266 260 261 265 244 228 231 205 179 168 183 172 142 162 187 184 188 193 164 136 159 182 186 187 186 176 177 183 271 256 206 190 194 198 201 207 208 211 222 227 219 207 198 221 243 227 124 132 140 146 151 146 140 135 130 130 130 127 125 122 119 120 116 110 108
249 190 159 154 185 210 206 225 239 239 243 236 247 314 255 244 256 252 241 255 253 250 256 255 244 243 248 239 221 221 207 179 176 187 170 149 172 183 182 190 183 147 151 180 187 190 192 178 168 159 157 171 254 213 193 200 206 205 203 201 205 211 216 224 229 255 339 35 141 140 137 133 140 149 144 139 137 131 129 130 127 124 123 123 122 117 114 111
235 228 155 131 287 259 217 207 230 215 254 284 276 298 278 264 263 261 264 268 256 243 242 249 250 237 231 237 230 219 224 195 180 179 166 158 181 179 178 185 176 165 184 189 178 185 196 176 167 163 151 152 162 176 188 188 179 183 189 189 202 212 206 210 222 196 88 104 124 131 124 120 131 140 134 131 128 123 124 126 124 124 125 125 121 116 114 107
307 301 66 124 281 280 257 65 93 175 50 353 308 275 270 264 267 271 269 262 257 247 233 235 249 242 229 234 225 205 229 233 188 155 126 170 196 186 180 177 172 179 190 186 173 172 174 160 166 161 135 136 151 150 152 143 114 104 123 151 176 192 177 155 133 112 104 106 117 121 117 113 123 128 125 124 123 122 125 125 123 125 125 123 120 117 113 103
335 331 10 324 287 300 96 88 76 74 12 317 250 270 260 254 266 275 273 265 255 248 233 226 240 256 251 234 213 192 225 234 177 123 128 196 202 187 190 178 169 179 189 181 162 155 168 174 173 170 154 147 151 141 134 128 114 101 94 97 123 143 130 114 106 114 124 127 127 126 125 130 135 130 125 125 126 126 126 126 125 125 124 123 121 116 109 99
340 325 6 314 284 41 96 109 107 135 251 208 214 230 238 252 261 256 256 265 246 240 246 248 255 269 249 216 187 104 26 159 115 92 129 220 218 178 193 199 179 179 183 170 153 159 177 179 177 179 165 146 145 143 139 137 131 115 96 72 58 109 109 98 80 83 115 137 143 141 139 141 140 135 130 129 130 128 127 127 126 125 125 122 117 111 105 100